Location: Unspecified
(0.0000°N, 0.0000°E)
Time: 20:48:03
(UTC+00:00)

Altair - Pass Details

Date: 08 October 2020
Orbit: 1502 x 1682 km, 47.2° (Epoch: 20 October)

Event Time Altitude Azimuth Distance (km) Brightness Sun altitude
Rises 20:41:18 0° 297° (WNW) 4,899 10.7 -43.2°
Reaches altitude 10° 20:45:00 10° 287° (WNW) 3,895 10.1 -44.1°
Maximum altitude 20:53:21 31° 229° (SW) 2,568 8.8 -46.1°
Enters shadow 20:57:05 24° 195° (SSW) 2,858 8.9 -47.1°
